千帆星座-1 (QIANFAN-1)

导读

QIANFAN-1 是中国自主研发的一颗卫星,主要用于地球观测和科学研究。该卫星具备高分辨率成像能力,能够提供精确的地理信息数据,广泛应用于环境监测、资源调查和灾害预警等领域。其先进的传感器和稳定的数据传输系统,提升了遥感数据的获取效率和质量。QIANFAN-1 的成功发射,标志着中国在卫星遥感技术方面取得重要进展,为国家的可持续发展和空间科学研究提供了有力支持。

基本信息
目录编号:
60379
目录名称:
QIANFAN-1
国际标识:
2024-140A
轨道中心:
EARTH
卫星名称:
千帆星座-1 (QIANFAN-1)
卫星全名:
千帆星座-1 (QIANFAN-1)
卫星状态:
在轨 (已飞行720 天)
发射日期:
2024-08-06 UTC
国别 :
中国 (CN)
星等 :
--
轨道信息
数据来源 国际轨道数据 AOE轨道数据
星历时间 2026-07-27T22:55:51+0800
7小时前
查看轨道信息
2026-07-27T00:00:00+0800
1天前
查看轨道信息
半长轴 7446.638km 7446.635km
偏心率 0.001518 0.0015196
轨道倾角 88.972° 88.974°
近地点辐角 279.771° 282.668°
升交点赤经 275.738° 275.837°
平近点角 80.173° 113.051°
近地点 1057.197km 1057.182km
远地点 1079.805km 1079.814km
周期 106.586分钟 106.586分钟
每日圈数 13.51022 13.510229
详细信息
运营商:
上海垣信卫星科技有限公司
运营商所在国:
中国
使用方式:
暂无
卫星简介
千帆星座,也被称为“G60星链”计划,是中国版“星链”的重要组成部分,旨在打造一个由1.4万多颗低轨宽频多媒体卫星构成的庞大星座。千帆星座计划由上海垣信卫星科技有限公司负责实施,于2023年启动建设。该项目是我国第二个低轨卫星大星座,旨在通过构建庞大的卫星网络,为全球用户提供高质量的通信和宽带互联网服务。
2D轨道图
3D轨道图
轨道高度分析图
轨道倾角分析图
轨道综合分析图
查看轨道综合分析图